| time (UTC) | temp F | wind direction | speed knots | gust knots | rain 1hr in | rain 24hr in | rain mn in | humidity % | barometer mb |
| 20260505013804 | 57 | 354 | 3.5 | 7.8 | 0.00 | 0.00 | 0.00 | 53 | 1010.4 |
| 20260505010804 | 58 | 30 | 0.0 | 1.7 | 0.00 | 0.00 | 0.00 | 49 | 1010.4 |
| 20260505005304 | 59 | 5 | 0.9 | 4.3 | 0.00 | 0.00 | 0.00 | 49 | 1010.4 |
| 20260505004804 | 59 | 9 | 0.9 | 4.3 | 0.00 | 0.00 | 0.00 | 48 | 1010.4 |
| 20260505004303 | 59 | 35 | 1.7 | 6.1 | 0.00 | 0.00 | 0.00 | 47 | 1010.4 |
| 20260505003804 | 58 | 359 | 5.2 | 10.4 | 0.00 | 0.00 | 0.00 | 47 | 1010.4 |
| 20260505003304 | 58 | 354 | 7.0 | 10.4 | 0.00 | 0.00 | 0.00 | 48 | 1010.4 |
| 20260505002804 | 59 | 349 | 6.1 | 11.3 | 0.00 | 0.00 | 0.00 | 48 | 1010.4 |
| 20260505002304 | 59 | 338 | 6.1 | 14.8 | 0.00 | 0.00 | 0.00 | 47 | 1010.4 |
| 20260505001303 | 61 | 343 | 8.7 | 13.0 | 0.00 | 0.00 | 0.00 | 42 | 1010.4 |
| 20260505000803 | 61 | 335 | 5.2 | 12.2 | 0.00 | 0.00 | 0.00 | 39 | 1010.4 |
| 20260505000304 | 61 | 347 | 6.1 | 11.3 | 0.00 | 0.00 | 0.00 | 38 | 1010.4 |
| 20260504235804 | 62 | 357 | 6.1 | 14.8 | 0.00 | 0.00 | 0.00 | 38 | 1010.4 |
| 20260504233804 | 62 | 325 | 7.8 | 11.3 | 0.00 | 0.00 | 0.00 | 40 | 1010.4 |
| 20260504233304 | 62 | 354 | 7.8 | 12.2 | 0.00 | 0.00 | 0.00 | 41 | 1010.4 |
| 20260504232804 | 63 | 10 | 4.3 | 7.0 | 0.00 | 0.00 | 0.00 | 37 | 1010.4 |
| 20260504232304 | 62 | 211 | 1.7 | 4.3 | 0.00 | 0.00 | 0.00 | 37 | 1010.4 |
| 20260504230804 | 62 | 92 | 5.2 | 11.3 | 0.00 | 0.00 | 0.00 | 38 | 1010.4 |
| 20260504230304 | 63 | 258 | 8.7 | 18.2 | 0.00 | 0.00 | 0.00 | 39 | 1010.4 |
| 20260504224304 | 64 | 345 | 7.0 | 10.4 | 0.00 | 0.00 | 0.00 | 32 | 1010.4 |
| 20260504223304 | 64 | 355 | 7.8 | 13.9 | 0.00 | 0.00 | 0.00 | 32 | 1010.4 |
| 20260504222804 | 64 | 340 | 7.0 | 17.4 | 0.00 | 0.00 | 0.00 | 32 | 1010.4 |
| 20260504221803 | 65 | 3 | 8.7 | 14.8 | 0.00 | 0.00 | 0.00 | 31 | 1010.4 |
| 20260504220304 | 66 | 6 | 10.4 | 17.4 | 0.00 | 0.00 | 0.00 | 30 | 1010.4 |
| 20260504215804 | 67 | 355 | 9.6 | 22.6 | 0.00 | 0.00 | 0.00 | 29 | 1010.4 |
| 20260504214804 | 68 | 16 | 13.9 | 20.9 | 0.00 | 0.00 | 0.00 | 29 | 1010.4 |
| 20260504214304 | 68 | 5 | 11.3 | 22.6 | 0.00 | 0.00 | 0.00 | 30 | 1010.4 |
| 20260504212804 | 68 | 7 | 13.0 | 21.7 | 0.00 | 0.00 | 0.00 | 29 | 1010.4 |
| 20260504210804 | 67 | 350 | 10.4 | 17.4 | 0.00 | 0.00 | 0.00 | 27 | 1010.4 |
| 20260504210304 | 68 | 332 | 5.2 | 8.7 | 0.00 | 0.00 | 0.00 | 25 | 1010.4 |
| 20260504205803 | 68 | 252 | 3.5 | 7.8 | 0.00 | 0.00 | 0.00 | 24 | 1010.4 |
| 20260504205304 | 67 | 255 | 3.5 | 7.0 | 0.00 | 0.00 | 0.00 | 24 | 1010.4 |
| 20260504204803 | 68 | 223 | 4.3 | 7.8 | 0.00 | 0.00 | 0.00 | 23 | 1010.4 |
| 20260504203303 | 67 | 164 | 4.3 | 6.1 | 0.00 | 0.00 | 0.00 | 23 | 1010.4 |
| 20260504202804 | 67 | 216 | 5.2 | 10.4 | 0.00 | 0.00 | 0.00 | 24 | 1010.4 |
| 20260504201303 | 66 | 178 | 7.0 | 17.4 | 0.00 | 0.00 | 0.00 | 27 | 1010.4 |
| 20260504200804 | 66 | 212 | 11.3 | 21.7 | 0.00 | 0.00 | 0.00 | 26 | 1010.4 |
| 20260504194803 | 71 | 219 | 2.6 | 5.2 | 0.00 | 0.00 | 0.00 | 18 | 1010.4 |
| 20260504194303 | 71 | 346 | 3.5 | 6.1 | 0.00 | 0.00 | 0.00 | 18 | 1010.4 |
| 20260504193304 | 72 | 353 | 4.3 | 7.0 | 0.00 | 0.00 | 0.00 | 19 | 1010.4 |
| 20260504191804 | 72 | 287 | 5.2 | 11.3 | 0.00 | 0.00 | 0.00 | 19 | 1010.4 |
| 20260504191304 | 72 | 355 | 3.5 | 7.0 | 0.00 | 0.00 | 0.00 | 20 | 1010.4 |
| 20260504184803 | 72 | 314 | 5.2 | 10.4 | 0.00 | 0.00 | 0.00 | 20 | 1010.4 |
| 20260504182803 | 75 | 307 | 5.2 | 12.2 | 0.00 | 0.00 | 0.00 | 18 | 1010.4 |
| 20260504182304 | 76 | 329 | 6.1 | 13.0 | 0.00 | 0.00 | 0.00 | 20 | 1010.4 |
| 20260504181804 | 75 | 279 | 7.8 | 12.2 | 0.00 | 0.00 | 0.00 | 21 | 1010.4 |
| 20260504175804 | 73 | 276 | 8.7 | 15.6 | 0.00 | 0.00 | 0.00 | 22 | 1010.4 |
| 20260504175304 | 72 | 333 | 8.7 | 17.4 | 0.00 | 0.00 | 0.00 | 23 | 1010.4 |
| 20260504173304 | 71 | 302 | 6.1 | 13.0 | 0.00 | 0.00 | 0.00 | 24 | 1010.4 |
| 20260504172803 | 72 | 319 | 7.0 | 15.6 | 0.00 | 0.00 | 0.00 | 23 | 1010.4 |
| 20260504170803 | 71 | 286 | 7.8 | 17.4 | 0.00 | 0.00 | 0.00 | 24 | 1010.4 |
| 20260504160303 | 67 | 276 | 8.7 | 15.6 | 0.00 | 0.00 | 0.00 | 26 | 1010.4 |
| 20260504140805 | 55 | 171 | 0.9 | 2.6 | 0.00 | 0.00 | 0.00 | 40 | 1010.4 |
| 20260504130305 | 49 | 0 | 0.0 | 0.0 | 0.00 | 0.00 | 0.00 | 45 | 1010.4 |
| 20260504120304 | 44 | 169 | 0.0 | 0.9 | 0.00 | 0.00 | 0.00 | 54 | 1010.4 |
| 20260504110305 | 43 | 202 | 1.7 | 2.6 | 0.00 | 0.00 | 0.00 | 58 | 1010.4 |
| 20260504100305 | 45 | 202 | 0.9 | 1.7 | 0.00 | 0.00 | 0.00 | 53 | 1010.4 |
| 20260504081305 | 48 | 202 | 0.9 | 1.7 | 0.00 | 0.00 | 0.00 | 47 | 1010.4 |
| 20260504080305 | 48 | 202 | 0.9 | 1.7 | 0.00 | 0.00 | 0.00 | 45 | 1010.4 |
| 20260504045805 | 60 | 212 | 1.7 | 2.6 | 0.00 | 0.00 | 0.00 | 30 | 1010.4 |
| 20260504044805 | 62 | 229 | 1.7 | 2.6 | 0.00 | 0.00 | 0.00 | 28 | 1010.4 |
| 20260504043804 | 62 | 219 | 2.6 | 5.2 | 0.00 | 0.00 | 0.00 | 28 | 1010.4 |
| 20260504043305 | 62 | 206 | 2.6 | 4.3 | 0.00 | 0.00 | 0.00 | 28 | 1010.4 |
| 20260504042804 | 62 | 220 | 2.6 | 5.2 | 0.00 | 0.00 | 0.00 | 28 | 1010.4 |
| 20260504041304 | 63 | 209 | 2.6 | 5.2 | 0.00 | 0.00 | 0.00 | 28 | 1010.4 |
| 20260504040804 | 63 | 202 | 2.6 | 5.2 | 0.00 | 0.00 | 0.00 | 28 | 1010.4 |
| 20260504035805 | 63 | 207 | 2.6 | 5.2 | 0.00 | 0.00 | 0.00 | 28 | 1010.4 |
| 20260504034804 | 63 | 217 | 2.6 | 5.2 | 0.00 | 0.00 | 0.00 | 27 | 1010.4 |
| 20260504034305 | 62 | 211 | 2.6 | 5.2 | 0.00 | 0.00 | 0.00 | 28 | 1010.4 |
| 20260504033805 | 62 | 208 | 1.7 | 4.3 | 0.00 | 0.00 | 0.00 | 28 | 1010.4 |
| 20260504031804 | 63 | 204 | 3.5 | 7.0 | 0.00 | 0.00 | 0.00 | 28 | 1010.4 |
| 20260504031304 | 63 | 194 | 2.6 | 6.1 | 0.00 | 0.00 | 0.00 | 28 | 1010.4 |
| 20260504024805 | 64 | 230 | 4.3 | 6.1 | 0.00 | 0.00 | 0.00 | 26 | 1010.4 |
| 20260504024304 | 64 | 167 | 3.5 | 6.1 | 0.00 | 0.00 | 0.00 | 27 | 1010.4 |
| 20260504023804 | 64 | 197 | 2.6 | 7.0 | 0.00 | 0.00 | 0.00 | 27 | 1010.4 |
| 20260504022805 | 64 | 188 | 2.6 | 4.3 | 0.00 | 0.00 | 0.00 | 26 | 1010.4 |
| 20260504022305 | 64 | 197 | 3.5 | 6.1 | 0.00 | 0.00 | 0.00 | 26 | 1010.4 |
| 20260504021305 | 64 | 173 | 4.3 | 6.1 | 0.00 | 0.00 | 0.00 | 26 | 1010.4 |
| 20260504020805 | 64 | 199 | 2.6 | 4.3 | 0.00 | 0.00 | 0.00 | 26 | 1010.4 |
| 20260504020304 | 64 | 233 | 1.7 | 4.3 | 0.00 | 0.00 | 0.00 | 26 | 1010.4 |
| 20260504015805 | 65 | 219 | 0.9 | 1.7 | 0.00 | 0.00 | 0.00 | 25 | 1010.4 |
| 20260504015305 | 66 | 355 | 0.0 | 2.6 | 0.00 | 0.00 | 0.00 | 25 | 1010.4 |
| 20260504014804 | 66 | 331 | 1.7 | 2.6 | 0.00 | 0.00 | 0.00 | 25 | 1010.4 |